Kelso-Longview, WA
on Sunday, November 4, 2012

Sunday
Previous Day Next Day
Daily Summary
 ActualAverage (KSPB)Record (KSPB)
Temperature
Mean Temperature °F °F  
Max Temperature 66°F °F 68°F (2010)
Min Temperature 55°F °F 27°F (2002)
Degree Days
Heating Degree Days 4    
Month to date heating degree days  
Since 1 July heating degree days  
Cooling Degree Days 0    
Month to date cooling degree days  
Year to date cooling degree days  
Growing Degree Days10 (Base °F )  
Moisture
Dew Point 56°F   
Average Humidity 82    
Maximum Humidity 94    
Minimum Humidity 73    
Precipitation
Precipitation 0.01 in in 0.66 in (2006)
Month to date precipitation  
Year to date precipitation  
Wind
Wind Speed 6 mph   
Max Wind Speed 16 mph   
Max Gust Speed 22 mph   
Visibility 10 miles   
Events     

Key: T is trace of precipitation, MM is missing value
Source: NWS Daily Summary
Time(PST)TemperatureDew PointHumidity Pressure Visibility Wind DirectionWind SpeedGust SpeedPrecipitationEvents Conditions
12:15 AM 55.4°F 53.6°F 94% 30.18 in 10.0 miles Calm Calm - N/A   Overcast
12:35 AM 55.4°F 53.6°F 94% 30.18 in 10.0 miles Calm Calm - N/A   Overcast
12:55 AM 57.2°F 53.6°F 88% 30.17 in 10.0 miles Calm Calm - N/A   Overcast
1:15 AM 57.2°F 53.6°F 88% 30.17 in 10.0 miles SE 4.6 mph - N/A   Overcast
1:35 AM 57.2°F 53.6°F 88% 30.17 in 10.0 miles SSE 6.9 mph - N/A   Overcast
1:55 AM 57.2°F 53.6°F 88% 30.17 in 10.0 miles SE 8.1 mph - N/A   Overcast
1:15 AM 57.2°F 53.6°F 88% 30.18 in 10.0 miles SE 5.8 mph - N/A   Overcast
1:35 AM 57.2°F 53.6°F 88% 30.18 in 10.0 miles SE 4.6 mph - N/A   Overcast
1:55 AM 57.2°F 53.6°F 88% 30.19 in 10.0 miles SE 4.6 mph - N/A   Overcast
2:15 AM 57.2°F 53.6°F 88% 30.18 in 10.0 miles SSE 5.8 mph - N/A   Overcast
2:35 AM 57.2°F 53.6°F 88% 30.18 in 10.0 miles SSE 4.6 mph - N/A   Overcast
2:55 AM 57.2°F 53.6°F 88% 30.18 in 10.0 miles SSE 6.9 mph - N/A   Overcast
3:15 AM 57.2°F 53.6°F 88% 30.18 in 10.0 miles SSE 5.8 mph - N/A   Overcast
3:35 AM 57.2°F 53.6°F 88% 30.19 in 10.0 miles SSE 4.6 mph - N/A   Overcast
3:55 AM 57.2°F 53.6°F 88% 30.19 in 10.0 miles SE 3.5 mph - N/A   Overcast
4:15 AM 57.2°F 53.6°F 88% 30.19 in 10.0 miles SSE 5.8 mph - N/A   Overcast
4:35 AM 57.2°F 53.6°F 88% 30.19 in 10.0 miles SSE 3.5 mph - N/A   Overcast
4:55 AM 57.2°F 53.6°F 88% 30.20 in 10.0 miles SSE 3.5 mph - N/A   Overcast
5:15 AM 57.2°F 53.6°F 88% 30.19 in 10.0 miles SSE 3.5 mph - N/A   Overcast
5:35 AM 57.2°F 55.4°F 94% 30.19 in 10.0 miles SE 4.6 mph - N/A   Overcast
5:55 AM 57.2°F 55.4°F 94% 30.20 in 10.0 miles South 5.8 mph - N/A   Overcast
6:15 AM 57.2°F 55.4°F 94% 30.20 in 10.0 miles SSE 5.8 mph - N/A   Overcast
6:35 AM 59.0°F 55.4°F 88% 30.21 in 10.0 miles South 3.5 mph - N/A   Overcast
6:55 AM 59.0°F 55.4°F 88% 30.21 in 10.0 miles SE 5.8 mph - N/A   Overcast
7:15 AM 59.0°F 55.4°F 88% 30.21 in 10.0 miles SSE 6.9 mph - N/A   Overcast
7:35 AM 60.8°F 55.4°F 82% 30.22 in 10.0 miles SSE 8.1 mph - N/A   Overcast
7:55 AM 60.8°F 55.4°F 82% 30.22 in 10.0 miles SSE 11.5 mph - N/A   Overcast
8:15 AM 60.8°F 55.4°F 82% 30.23 in 10.0 miles SSE 9.2 mph 19.6 mph N/A   Overcast
8:35 AM 60.8°F 55.4°F 82% 30.23 in 10.0 miles South 9.2 mph - N/A   Overcast
8:55 AM 62.6°F 55.4°F 77% 30.24 in 10.0 miles SSE 9.2 mph 17.3 mph N/A   Overcast
9:15 AM 62.6°F 55.4°F 77% 30.24 in 10.0 miles SSE 16.1 mph 21.9 mph N/A   Overcast
9:35 AM 62.6°F 55.4°F 77% 30.25 in 10.0 miles South 13.8 mph 20.7 mph N/A   Overcast
9:55 AM 62.6°F 55.4°F 77% 30.26 in 10.0 miles SSE 10.4 mph 17.3 mph N/A   Overcast
10:15 AM 62.6°F 55.4°F 77% 30.26 in 10.0 miles SSE 10.4 mph 17.3 mph N/A   Overcast
10:35 AM 62.6°F 55.4°F 77% 30.26 in 10.0 miles SSE 11.5 mph 18.4 mph N/A   Overcast
10:55 AM 62.6°F 55.4°F 77% 30.27 in 10.0 miles SSE 13.8 mph 18.4 mph N/A   Overcast
11:15 AM 62.6°F 55.4°F 77% 30.27 in 10.0 miles SSE 13.8 mph 21.9 mph N/A   Overcast
11:35 AM 64.4°F 55.4°F 73% 30.27 in 10.0 miles South 9.2 mph - N/A   Overcast
11:55 AM 64.4°F 55.4°F 73% 30.27 in 10.0 miles SSE 11.5 mph 18.4 mph N/A   Overcast
12:15 PM 64.4°F 55.4°F 73% 30.28 in 10.0 miles SSE 11.5 mph 16.1 mph N/A   Overcast
12:35 PM 64.4°F 55.4°F 73% 30.28 in 10.0 miles SSE 11.5 mph 19.6 mph N/A   Overcast
12:55 PM 64.4°F 55.4°F 73% 30.28 in 10.0 miles SSE 12.7 mph 18.4 mph N/A   Overcast
1:15 PM 66.2°F 57.2°F 73% 30.27 in 10.0 miles SE 12.7 mph 18.4 mph N/A   Overcast
1:35 PM 66.2°F 57.2°F 73% 30.27 in 10.0 miles SSE 11.5 mph 17.3 mph N/A   Overcast
1:55 PM 66.2°F 57.2°F 73% 30.28 in 10.0 miles South 9.2 mph 18.4 mph N/A   Overcast
2:15 PM 66.2°F 57.2°F 73% 30.28 in 10.0 miles South 10.4 mph 18.4 mph N/A   Overcast
2:35 PM 66.2°F 57.2°F 73% 30.28 in 10.0 miles SSE 9.2 mph - N/A   Overcast
2:55 PM 66.2°F 57.2°F 73% 30.28 in 10.0 miles South 6.9 mph - N/A   Overcast
3:15 PM 66.2°F 57.2°F 73% 30.29 in 10.0 miles South 8.1 mph - N/A   Overcast
3:35 PM 66.2°F 57.2°F 73% 30.28 in 10.0 miles SSE 8.1 mph - N/A   Overcast
3:55 PM 66.2°F 57.2°F 73% 30.28 in 10.0 miles South 6.9 mph - N/A   Overcast
4:15 PM 64.4°F 57.2°F 77% 30.28 in 10.0 miles SSE 6.9 mph - N/A   Mostly Cloudy
4:35 PM 64.4°F 57.2°F 77% 30.28 in 10.0 miles SSE 6.9 mph - N/A   Partly Cloudy
4:55 PM 62.6°F 57.2°F 82% 30.28 in 10.0 miles SSE 8.1 mph - N/A   Clear
5:15 PM 62.6°F 57.2°F 82% 30.28 in 10.0 miles SSE 6.9 mph - N/A   Clear
5:35 PM 62.6°F 57.2°F 82% 30.28 in 10.0 miles SSE 5.8 mph - N/A   Clear
5:55 PM 62.6°F 57.2°F 82% 30.28 in 10.0 miles South 6.9 mph - N/A   Scattered Clouds
6:15 PM 62.6°F 57.2°F 82% 30.29 in 10.0 miles SSW 3.5 mph - N/A   Overcast
6:35 PM 62.6°F 57.2°F 82% 30.29 in 10.0 miles Calm Calm - N/A   Overcast
6:55 PM 62.6°F 57.2°F 82% 30.30 in 10.0 miles Calm Calm - N/A   Overcast
7:15 PM 62.6°F 57.2°F 82% 30.30 in 10.0 miles Calm Calm - N/A   Overcast
7:35 PM 62.6°F 57.2°F 82% 30.30 in 10.0 miles SE 4.6 mph - N/A   Overcast
7:55 PM 62.6°F 57.2°F 82% 30.30 in 10.0 miles SSE 5.8 mph - N/A   Overcast
8:15 PM 62.6°F 57.2°F 82% 30.30 in 10.0 miles SSE 6.9 mph - N/A   Overcast
8:35 PM 62.6°F 57.2°F 82% 30.29 in 10.0 miles SSE 8.1 mph - N/A   Overcast
8:55 PM 62.6°F 57.2°F 82% 30.29 in 10.0 miles SSE 6.9 mph - N/A   Overcast
9:15 PM 62.6°F 57.2°F 82% 30.30 in 10.0 miles South 8.1 mph - N/A   Overcast
9:35 PM 62.6°F 57.2°F 82% 30.30 in 10.0 miles SSW 3.5 mph - N/A   Overcast
9:55 PM 62.6°F 57.2°F 82% 30.30 in 10.0 miles South 5.8 mph - N/A   Overcast
10:15 PM 62.6°F 57.2°F 82% 30.30 in 10.0 miles SSE 8.1 mph - N/A   Overcast
10:35 PM 62.6°F 57.2°F 82% 30.29 in 10.0 miles SSE 9.2 mph - N/A   Overcast
10:55 PM 62.6°F 57.2°F 82% 30.29 in 10.0 miles South 6.9 mph - N/A   Overcast
Moon Phase
Nov. 04 Nov. 06 Nov. 13 Nov. 20 Nov. 28
Sunrise:06:57 AM (PST) Moon Rise:09:33 PM (PST)11/4
Sunset:04:52 PM (PST) Moon Set:11:48 AM (PST)11/4

Copyright © 2014 The Weather Underground, Inc.